Time,TemperatureF,DewpointF,PressureIn,WindDirection,WindDirectionDegrees,WindSpeedMPH,WindSpeedGustMPH,Humidity,HourlyPrecipIn,Conditions,Clouds,dailyrainin,SoftwareType,DateUTC
2013-08-03 00:00:00,76.2,68.5,29.96,WSW,242,2.0,10.0,77,0.00,,,0.00,Wunderground v.1.15,2013-08-03 04:00:00,
2013-08-03 00:05:00,76.1,68.7,29.96,WSW,245,2.0,10.0,78,0.00,,,0.00,Wunderground v.1.15,2013-08-03 04:05:00,
2013-08-03 00:10:00,76.0,68.6,29.96,WSW,245,1.0,1.0,78,0.00,,,0.00,Wunderground v.1.15,2013-08-03 04:10:00,
2013-08-03 00:15:00,75.7,68.7,29.96,WSW,245,0.0,10.0,79,0.00,,,0.00,Wunderground v.1.15,2013-08-03 04:15:00,
2013-08-03 00:20:00,75.4,69.2,29.96,WSW,245,0.0,10.0,81,0.00,,,0.00,Wunderground v.1.15,2013-08-03 04:20:00,
2013-08-03 00:25:00,75.1,69.2,29.96,WSW,245,0.0,10.0,82,0.00,,,0.00,Wunderground v.1.15,2013-08-03 04:25:00,
2013-08-03 00:30:00,74.4,69.2,29.96,WSW,245,0.0,10.0,84,0.00,,,0.00,Wunderground v.1.15,2013-08-03 04:30:00,
2013-08-03 00:40:00,73.3,68.9,29.97,WSW,245,0.0,10.0,86,0.00,,,0.00,Wunderground v.1.15,2013-08-03 04:40:00,
2013-08-03 00:45:00,72.9,68.5,29.97,WSW,245,0.0,10.0,86,0.00,,,0.00,Wunderground v.1.15,2013-08-03 04:45:00,
2013-08-03 00:50:00,72.4,68.6,29.97,WSW,245,0.0,10.0,88,0.00,,,0.00,Wunderground v.1.15,2013-08-03 04:50:00,
2013-08-03 00:55:00,72.1,68.7,29.97,WSW,245,0.0,10.0,89,0.00,,,0.00,Wunderground v.1.15,2013-08-03 04:55:00,
2013-08-03 01:05:00,71.8,68.4,29.97,WSW,245,0.0,10.0,89,0.00,,,0.00,Wunderground v.1.15,2013-08-03 05:05:00,
2013-08-03 01:10:00,71.6,68.5,29.97,WSW,245,0.0,10.0,90,0.00,,,0.00,Wunderground v.1.15,2013-08-03 05:10:00,
2013-08-03 01:15:00,71.5,68.4,29.97,WSW,245,0.0,10.0,90,0.00,,,0.00,Wunderground v.1.15,2013-08-03 05:15:00,
2013-08-03 01:20:00,71.5,68.7,29.96,WSW,245,0.0,10.0,91,0.00,,,0.00,Wunderground v.1.15,2013-08-03 05:20:00,
2013-08-03 01:25:00,71.3,68.5,29.96,WSW,245,0.0,10.0,91,0.00,,,0.00,Wunderground v.1.15,2013-08-03 05:25:00,
2013-08-03 01:35:00,71.2,68.4,29.96,WSW,245,0.0,10.0,91,0.00,,,0.00,Wunderground v.1.15,2013-08-03 05:35:00,
2013-08-03 01:40:00,71.1,68.3,29.96,WSW,245,0.0,10.0,91,0.00,,,0.00,Wunderground v.1.15,2013-08-03 05:40:00,
2013-08-03 01:45:00,71.0,68.2,29.96,WSW,245,0.0,10.0,91,0.00,,,0.00,Wunderground v.1.15,2013-08-03 05:45:00,
2013-08-03 01:50:00,70.9,68.5,29.96,WSW,245,0.0,10.0,92,0.00,,,0.00,Wunderground v.1.15,2013-08-03 05:50:00,
2013-08-03 01:55:00,70.8,68.4,29.95,WSW,245,0.0,10.0,92,0.00,,,0.00,Wunderground v.1.15,2013-08-03 05:55:00,
2013-08-03 02:05:00,70.4,68.0,29.95,WSW,245,0.0,10.0,92,0.00,,,0.00,Wunderground v.1.15,2013-08-03 06:05:00,
2013-08-03 02:10:00,70.3,68.2,29.95,WSW,245,0.0,10.0,93,0.00,,,0.00,Wunderground v.1.15,2013-08-03 06:10:00,
2013-08-03 02:15:00,70.1,68.0,29.95,WSW,245,0.0,10.0,93,0.00,,,0.00,Wunderground v.1.15,2013-08-03 06:15:00,
2013-08-03 02:20:00,69.9,67.8,29.94,WSW,245,0.0,10.0,93,0.00,,,0.00,Wunderground v.1.15,2013-08-03 06:20:00,
2013-08-03 02:30:00,69.6,67.8,29.94,WSW,245,0.0,10.0,94,0.00,,,0.00,Wunderground v.1.15,2013-08-03 06:30:00,
2013-08-03 02:35:00,69.6,67.8,29.94,WSW,245,0.0,10.0,94,0.00,,,0.00,Wunderground v.1.15,2013-08-03 06:35:00,
2013-08-03 02:40:00,69.5,67.7,29.94,WSW,245,0.0,10.0,94,0.00,,,0.00,Wunderground v.1.15,2013-08-03 06:40:00,
2013-08-03 02:45:00,69.4,67.6,29.94,WSW,245,0.0,10.0,94,0.00,,,0.00,Wunderground v.1.15,2013-08-03 06:45:00,
2013-08-03 02:50:00,69.3,67.5,29.94,WSW,245,0.0,10.0,94,0.00,,,0.00,Wunderground v.1.15,2013-08-03 06:50:00,
2013-08-03 03:00:00,69.0,67.5,29.94,WSW,245,0.0,10.0,95,0.00,,,0.00,Wunderground v.1.15,2013-08-03 07:00:00,
2013-08-03 03:05:00,68.9,67.4,29.94,WSW,245,0.0,10.0,95,0.00,,,0.00,Wunderground v.1.15,2013-08-03 07:05:00,
2013-08-03 03:10:00,68.8,67.3,29.94,WSW,245,0.0,10.0,95,0.00,,,0.00,Wunderground v.1.15,2013-08-03 07:10:00,
2013-08-03 03:15:00,68.7,67.2,29.94,WSW,245,0.0,10.0,95,0.00,,,0.00,Wunderground v.1.15,2013-08-03 07:15:00,
2013-08-03 03:25:00,68.6,67.1,29.94,WSW,245,0.0,10.0,95,0.00,,,0.00,Wunderground v.1.15,2013-08-03 07:25:00,
2013-08-03 03:30:00,68.5,67.0,29.94,WSW,245,0.0,10.0,95,0.00,,,0.00,Wunderground v.1.15,2013-08-03 07:30:00,
2013-08-03 03:35:00,68.5,67.3,29.94,WSW,245,0.0,10.0,96,0.00,,,0.00,Wunderground v.1.15,2013-08-03 07:35:00,
2013-08-03 03:40:00,68.4,67.2,29.94,WSW,245,0.0,10.0,96,0.00,,,0.00,Wunderground v.1.15,2013-08-03 07:40:00,
2013-08-03 03:45:00,68.4,67.2,29.94,WSW,245,0.0,10.0,96,0.00,,,0.00,Wunderground v.1.15,2013-08-03 07:45:00,
2013-08-03 03:55:00,68.5,67.3,29.94,WSW,245,0.0,10.0,96,0.00,,,0.00,Wunderground v.1.15,2013-08-03 07:55:00,
2013-08-03 04:00:00,68.6,67.4,29.94,WSW,245,0.0,10.0,96,0.00,,,0.00,Wunderground v.1.15,2013-08-03 08:00:00,
2013-08-03 04:05:00,68.6,67.4,29.94,WSW,245,0.0,10.0,96,0.00,,,0.00,Wunderground v.1.15,2013-08-03 08:05:00,
2013-08-03 04:10:00,68.5,67.3,29.94,WSW,245,0.0,10.0,96,0.00,,,0.00,Wunderground v.1.15,2013-08-03 08:10:00,
2013-08-03 04:15:00,68.5,67.3,29.94,WSW,245,0.0,10.0,96,0.00,,,0.00,Wunderground v.1.15,2013-08-03 08:15:00,
2013-08-03 04:25:00,68.5,67.3,29.94,WSW,245,0.0,10.0,96,0.00,,,0.00,Wunderground v.1.15,2013-08-03 08:25:00,
2013-08-03 04:30:00,68.5,67.3,29.94,WSW,245,0.0,10.0,96,0.00,,,0.00,Wunderground v.1.15,2013-08-03 08:30:00,
2013-08-03 04:35:00,68.5,67.3,29.94,WSW,245,0.0,10.0,96,0.00,,,0.00,Wunderground v.1.15,2013-08-03 08:35:00,
2013-08-03 04:40:00,68.4,67.2,29.95,WSW,245,0.0,10.0,96,0.00,,,0.00,Wunderground v.1.15,2013-08-03 08:40:00,
2013-08-03 04:45:00,68.4,67.2,29.95,WSW,245,0.0,10.0,96,0.00,,,0.00,Wunderground v.1.15,2013-08-03 08:45:00,
2013-08-03 04:55:00,68.4,67.2,29.95,WSW,245,0.0,10.0,96,0.00,,,0.00,Wunderground v.1.15,2013-08-03 08:55:00,
2013-08-03 05:00:00,68.4,67.2,29.95,WSW,245,0.0,10.0,96,0.00,,,0.00,Wunderground v.1.15,2013-08-03 09:00:00,
2013-08-03 05:05:00,68.4,67.5,29.95,WSW,245,0.0,10.0,97,0.00,,,0.00,Wunderground v.1.15,2013-08-03 09:05:00,
2013-08-03 05:15:00,68.4,67.5,29.95,WSW,245,0.0,10.0,97,0.00,,,0.00,Wunderground v.1.15,2013-08-03 09:15:00,
2013-08-03 05:20:00,68.4,67.5,29.95,WSW,245,0.0,10.0,97,0.00,,,0.00,Wunderground v.1.15,2013-08-03 09:20:00,
2013-08-03 05:25:00,68.4,67.5,29.96,WSW,245,0.0,10.0,97,0.00,,,0.00,Wunderground v.1.15,2013-08-03 09:25:00,
2013-08-03 05:30:00,68.4,67.5,29.96,WSW,245,0.0,10.0,97,0.00,,,0.00,Wunderground v.1.15,2013-08-03 09:30:00,
2013-08-03 05:35:00,68.3,67.1,29.96,WSW,245,0.0,10.0,96,0.00,,,0.00,Wunderground v.1.15,2013-08-03 09:35:00,
2013-08-03 05:45:00,68.6,67.4,29.96,WSW,245,0.0,10.0,96,0.00,,,0.00,Wunderground v.1.15,2013-08-03 09:45:00,
2013-08-03 05:50:00,68.6,67.4,29.96,WSW,245,0.0,10.0,96,0.00,,,0.00,Wunderground v.1.15,2013-08-03 09:50:00,
2013-08-03 05:55:00,68.6,67.4,29.97,WSW,245,0.0,10.0,96,0.00,,,0.00,Wunderground v.1.15,2013-08-03 09:55:00,
2013-08-03 06:00:00,68.4,67.2,29.97,WSW,245,0.0,10.0,96,0.00,,,0.00,Wunderground v.1.15,2013-08-03 10:00:00,
2013-08-03 06:05:00,68.3,67.1,29.96,WSW,245,0.0,10.0,96,0.00,,,0.00,Wunderground v.1.15,2013-08-03 10:05:00,
2013-08-03 06:15:00,68.1,66.9,29.96,WSW,245,0.0,10.0,96,0.00,,,0.00,Wunderground v.1.15,2013-08-03 10:15:00,
2013-08-03 06:20:00,68.1,66.9,29.96,WSW,245,0.0,10.0,96,0.00,,,0.00,Wunderground v.1.15,2013-08-03 10:20:00,
2013-08-03 06:25:00,68.1,66.9,29.96,WSW,245,0.0,10.0,96,0.00,,,0.00,Wunderground v.1.15,2013-08-03 10:25:00,
2013-08-03 06:30:00,68.1,67.2,29.96,WSW,245,0.0,10.0,97,0.00,,,0.00,Wunderground v.1.15,2013-08-03 10:30:00,
2013-08-03 06:35:00,68.1,67.2,29.96,WSW,245,0.0,10.0,97,0.00,,,0.00,Wunderground v.1.15,2013-08-03 10:35:00,
2013-08-03 06:45:00,68.1,67.2,29.96,WSW,245,0.0,10.0,97,0.00,,,0.00,Wunderground v.1.15,2013-08-03 10:45:00,
2013-08-03 06:50:00,68.2,67.3,29.96,WSW,245,0.0,10.0,97,0.00,,,0.00,Wunderground v.1.15,2013-08-03 10:50:00,
2013-08-03 06:55:00,68.3,67.4,29.97,WSW,245,0.0,10.0,97,0.00,,,0.00,Wunderground v.1.15,2013-08-03 10:55:00,
2013-08-03 07:00:00,68.4,67.5,29.97,WSW,245,0.0,10.0,97,0.00,,,0.00,Wunderground v.1.15,2013-08-03 11:00:00,
2013-08-03 07:05:00,68.4,67.5,29.97,WSW,245,0.0,10.0,97,0.00,,,0.00,Wunderground v.1.15,2013-08-03 11:05:00,
2013-08-03 07:15:00,68.6,67.7,29.97,WSW,245,0.0,10.0,97,0.00,,,0.00,Wunderground v.1.15,2013-08-03 11:15:00,
2013-08-03 07:20:00,68.7,67.8,29.97,WSW,245,0.0,10.0,97,0.00,,,0.00,Wunderground v.1.15,2013-08-03 11:20:00,
2013-08-03 07:25:00,68.8,67.9,29.97,WSW,245,0.0,10.0,97,0.00,,,0.00,Wunderground v.1.15,2013-08-03 11:25:00,
2013-08-03 07:35:00,68.9,68.0,29.97,WSW,245,0.0,10.0,97,0.00,,,0.00,Wunderground v.1.15,2013-08-03 11:35:00,
2013-08-03 07:40:00,69.0,68.1,29.97,WSW,245,0.0,10.0,97,0.00,,,0.00,Wunderground v.1.15,2013-08-03 11:40:00,
2013-08-03 07:45:00,69.1,67.9,29.98,WSW,245,0.0,10.0,96,0.00,,,0.00,Wunderground v.1.15,2013-08-03 11:45:00,
2013-08-03 07:50:00,69.2,68.0,29.98,WSW,245,0.0,10.0,96,0.00,,,0.00,Wunderground v.1.15,2013-08-03 11:50:00,
2013-08-03 07:55:00,69.3,68.1,29.98,WSW,245,0.0,10.0,96,0.00,,,0.00,Wunderground v.1.15,2013-08-03 11:55:00,
2013-08-03 08:05:00,69.5,68.3,29.98,WSW,245,0.0,10.0,96,0.00,,,0.00,Wunderground v.1.15,2013-08-03 12:05:00,
2013-08-03 08:10:00,69.6,68.4,29.98,WSW,245,0.0,10.0,96,0.00,,,0.00,Wunderground v.1.15,2013-08-03 12:10:00,
2013-08-03 08:15:00,69.7,68.5,29.98,WSW,245,0.0,10.0,96,0.00,,,0.00,Wunderground v.1.15,2013-08-03 12:15:00,
2013-08-03 08:20:00,69.7,68.5,29.98,WSW,245,0.0,10.0,96,0.00,,,0.00,Wunderground v.1.15,2013-08-03 12:20:00,
2013-08-03 08:25:00,69.8,68.6,29.98,WSW,245,0.0,10.0,96,0.00,,,0.00,Wunderground v.1.15,2013-08-03 12:25:00,
2013-08-03 08:35:00,70.0,68.8,29.98,WSW,245,0.0,10.0,96,0.00,,,0.00,Wunderground v.1.15,2013-08-03 12:35:00,
2013-08-03 08:40:00,70.1,68.9,29.98,WSW,245,0.0,10.0,96,0.00,,,0.00,Wunderground v.1.15,2013-08-03 12:40:00,
2013-08-03 08:45:00,70.1,69.2,29.98,WSW,245,0.0,10.0,97,0.00,,,0.00,Wunderground v.1.15,2013-08-03 12:45:00,
2013-08-03 08:50:00,70.3,69.4,29.98,WSW,245,0.0,10.0,97,0.00,,,0.00,Wunderground v.1.15,2013-08-03 12:50:00,
2013-08-03 08:55:00,70.4,69.5,29.98,WSW,245,0.0,10.0,97,0.00,,,0.00,Wunderground v.1.15,2013-08-03 12:55:00,
2013-08-03 09:05:00,70.2,69.3,29.98,WSW,245,0.0,10.0,97,0.00,,,0.00,Wunderground v.1.15,2013-08-03 13:05:00,
2013-08-03 09:10:00,70.1,69.5,29.98,WSW,245,0.0,10.0,98,0.00,,,0.01,Wunderground v.1.15,2013-08-03 13:10:00,
2013-08-03 09:15:00,70.2,69.6,29.98,WSW,245,0.0,10.0,98,0.00,,,0.01,Wunderground v.1.15,2013-08-03 13:15:00,
2013-08-03 09:20:00,70.3,70.0,29.98,WSW,245,0.0,10.0,99,0.00,,,0.01,Wunderground v.1.15,2013-08-03 13:20:00,
2013-08-03 09:25:00,70.4,70.1,29.98,WSW,245,0.0,10.0,99,0.00,,,0.01,Wunderground v.1.15,2013-08-03 13:25:00,
2013-08-03 09:35:00,70.7,69.8,29.98,WSW,245,0.0,10.0,97,0.00,,,0.01,Wunderground v.1.15,2013-08-03 13:35:00,
2013-08-03 09:40:00,71.0,70.1,29.98,WSW,245,0.0,10.0,97,0.00,,,0.01,Wunderground v.1.15,2013-08-03 13:40:00,
2013-08-03 09:45:00,71.4,71.1,29.98,WSW,245,0.0,10.0,99,0.00,,,0.01,Wunderground v.1.15,2013-08-03 13:45:00,
2013-08-03 09:50:00,71.7,71.4,29.98,WSW,245,0.0,10.0,99,0.00,,,0.01,Wunderground v.1.15,2013-08-03 13:50:00,
2013-08-03 10:00:00,71.7,70.8,29.98,WSW,245,0.0,10.0,97,0.00,,,0.01,Wunderground v.1.15,2013-08-03 14:00:00,
2013-08-03 10:05:00,71.8,70.9,29.98,WSW,245,0.0,10.0,97,0.00,,,0.01,Wunderground v.1.15,2013-08-03 14:05:00,
2013-08-03 10:10:00,72.0,70.8,29.98,WSW,245,0.0,10.0,96,0.00,,,0.01,Wunderground v.1.15,2013-08-03 14:10:00,
2013-08-03 10:15:00,72.2,70.7,29.99,WSW,245,0.0,10.0,95,0.00,,,0.01,Wunderground v.1.15,2013-08-03 14:15:00,
2013-08-03 10:25:00,72.8,70.7,29.99,WSW,245,0.0,10.0,93,0.00,,,0.01,Wunderground v.1.15,2013-08-03 14:25:00,
2013-08-03 10:30:00,73.1,71.3,29.98,WSW,245,0.0,10.0,94,0.00,,,0.01,Wunderground v.1.15,2013-08-03 14:30:00,
2013-08-03 10:35:00,73.4,71.6,29.98,WSW,245,0.0,10.0,94,0.00,,,0.01,Wunderground v.1.15,2013-08-03 14:35:00,
2013-08-03 10:40:00,73.5,70.7,29.98,WSW,245,0.0,10.0,91,0.00,,,0.01,Wunderground v.1.15,2013-08-03 14:40:00,
2013-08-03 10:45:00,73.7,70.9,29.98,WSW,245,0.0,10.0,91,0.00,,,0.01,Wunderground v.1.15,2013-08-03 14:45:00,
2013-08-03 10:55:00,74.6,73.4,29.98,WSW,245,0.0,10.0,96,0.00,,,0.01,Wunderground v.1.15,2013-08-03 14:55:00,
2013-08-03 11:00:00,75.1,74.2,29.98,WSW,245,0.0,10.0,97,0.00,,,0.01,Wunderground v.1.15,2013-08-03 15:00:00,
2013-08-03 11:05:00,75.6,74.7,29.98,WSW,245,0.0,10.0,97,0.00,,,0.01,Wunderground v.1.15,2013-08-03 15:05:00,
2013-08-03 11:10:00,75.9,74.0,29.97,WSW,245,0.0,10.0,94,0.00,,,0.01,Wunderground v.1.15,2013-08-03 15:10:00,
2013-08-03 11:15:00,75.9,72.1,29.97,WSW,245,0.0,10.0,88,0.00,,,0.01,Wunderground v.1.15,2013-08-03 15:15:00,
2013-08-03 11:25:00,76.3,71.8,29.97,WNW,288,0.0,10.0,86,0.00,,,0.01,Wunderground v.1.15,2013-08-03 15:25:00,
2013-08-03 11:30:00,76.3,71.1,29.98,WNW,287,0.0,10.0,84,0.00,,,0.01,Wunderground v.1.15,2013-08-03 15:30:00,
2013-08-03 11:35:00,76.1,70.6,29.98,WNW,288,0.0,10.0,83,0.00,,,0.01,Wunderground v.1.15,2013-08-03 15:35:00,
2013-08-03 11:45:00,75.5,69.6,29.98,WNW,298,1.0,10.0,82,0.00,,,0.01,Wunderground v.1.15,2013-08-03 15:45:00,
2013-08-03 11:50:00,75.4,69.9,29.98,WNW,298,1.0,10.0,83,0.00,,,0.01,Wunderground v.1.15,2013-08-03 15:50:00,
2013-08-03 11:55:00,75.3,70.1,29.98,WNW,298,0.0,10.0,84,0.00,,,0.01,Wunderground v.1.15,2013-08-03 15:55:00,
2013-08-03 12:00:00,75.4,69.9,29.98,WNW,298,0.0,10.0,83,0.00,,,0.01,Wunderground v.1.15,2013-08-03 16:00:00,
2013-08-03 12:05:00,75.5,70.0,29.97,WNW,298,0.0,10.0,83,0.00,,,0.01,Wunderground v.1.15,2013-08-03 16:05:00,
2013-08-03 12:15:00,75.4,70.2,29.97,WNW,298,0.0,10.0,84,0.00,,,0.01,Wunderground v.1.15,2013-08-03 16:15:00,
2013-08-03 12:20:00,75.4,70.6,29.97,WNW,298,0.0,10.0,85,0.00,,,0.01,Wunderground v.1.15,2013-08-03 16:20:00,
2013-08-03 12:25:00,75.3,70.1,29.97,WNW,298,0.0,10.0,84,0.00,,,0.01,Wunderground v.1.15,2013-08-03 16:25:00,
2013-08-03 12:30:00,75.1,69.9,29.97,WNW,298,0.0,10.0,84,0.00,,,0.01,Wunderground v.1.15,2013-08-03 16:30:00,
2013-08-03 12:35:00,75.2,70.4,29.97,WNW,298,0.0,10.0,85,0.00,,,0.01,Wunderground v.1.15,2013-08-03 16:35:00,
2013-08-03 12:45:00,75.4,70.9,29.96,WNW,298,0.0,10.0,86,0.00,,,0.01,Wunderground v.1.15,2013-08-03 16:45:00,
2013-08-03 12:50:00,75.4,70.9,29.96,WNW,298,0.0,10.0,86,0.00,,,0.01,Wunderground v.1.15,2013-08-03 16:50:00,
2013-08-03 12:55:00,75.2,70.4,29.96,WNW,298,0.0,10.0,85,0.00,,,0.01,Wunderground v.1.15,2013-08-03 16:55:00,
2013-08-03 13:00:00,75.2,70.7,29.96,WNW,298,0.0,10.0,86,0.00,,,0.01,Wunderground v.1.15,2013-08-03 17:00:00,
2013-08-03 13:10:00,75.5,71.0,29.96,WNW,298,0.0,10.0,86,0.00,,,0.01,Wunderground v.1.15,2013-08-03 17:10:00,
2013-08-03 13:15:00,75.8,71.3,29.96,WNW,298,0.0,10.0,86,0.00,,,0.01,Wunderground v.1.15,2013-08-03 17:15:00,
2013-08-03 13:20:00,76.1,71.3,29.96,WNW,298,1.0,10.0,85,0.00,,,0.01,Wunderground v.1.15,2013-08-03 17:20:00,
2013-08-03 13:25:00,76.6,71.4,29.96,WNW,298,1.0,10.0,84,0.00,,,0.01,Wunderground v.1.15,2013-08-03 17:25:00,
2013-08-03 13:35:00,78.0,71.3,29.96,WNW,296,0.0,10.0,80,0.00,,,0.01,Wunderground v.1.15,2013-08-03 17:35:00,
2013-08-03 13:40:00,78.4,71.3,29.96,WNW,298,0.0,10.0,79,0.00,,,0.01,Wunderground v.1.15,2013-08-03 17:40:00,
2013-08-03 13:45:00,77.8,70.0,29.96,WNW,301,2.0,10.0,77,0.00,,,0.01,Wunderground v.1.15,2013-08-03 17:45:00,
2013-08-03 13:50:00,77.7,70.7,29.96,WNW,302,3.0,10.0,79,0.00,,,0.01,Wunderground v.1.15,2013-08-03 17:50:00,
2013-08-03 13:55:00,77.7,70.7,29.96,WNW,285,2.0,10.0,79,0.00,,,0.01,Wunderground v.1.15,2013-08-03 17:55:00,
2013-08-03 14:05:00,78.1,71.1,29.97,West,277,1.0,10.0,79,0.00,,,0.01,Wunderground v.1.15,2013-08-03 18:05:00,
2013-08-03 14:10:00,77.9,70.1,29.97,West,277,1.0,1.0,77,0.00,,,0.01,Wunderground v.1.15,2013-08-03 18:10:00,
2013-08-03 14:15:00,77.3,69.5,29.97,WNW,287,1.0,10.0,77,0.00,,,0.01,Wunderground v.1.15,2013-08-03 18:15:00,
2013-08-03 14:20:00,76.4,68.7,29.97,WNW,296,1.0,10.0,77,0.00,,,0.01,Wunderground v.1.15,2013-08-03 18:20:00,
2013-08-03 14:25:00,76.1,69.1,29.96,WNW,296,1.0,10.0,79,0.00,,,0.01,Wunderground v.1.15,2013-08-03 18:25:00,
2013-08-03 14:35:00,76.0,69.0,29.96,WNW,298,1.0,10.0,79,0.00,,,0.01,Wunderground v.1.15,2013-08-03 18:35:00,
2013-08-03 14:40:00,76.6,70.0,29.96,WNW,298,1.0,1.0,80,0.00,,,0.01,Wunderground v.1.15,2013-08-03 18:40:00,
2013-08-03 14:45:00,77.6,70.2,29.95,WNW,298,0.0,10.0,78,0.00,,,0.01,Wunderground v.1.15,2013-08-03 18:45:00,
2013-08-03 14:50:00,78.2,70.0,29.95,WNW,298,0.0,10.0,76,0.00,,,0.01,Wunderground v.1.15,2013-08-03 18:50:00,
2013-08-03 15:00:00,77.8,68.8,29.96,WNW,286,0.0,10.0,74,0.00,,,0.01,Wunderground v.1.15,2013-08-03 19:00:00,
2013-08-03 15:05:00,77.3,68.0,29.95,WNW,302,1.0,10.0,73,0.00,,,0.01,Wunderground v.1.15,2013-08-03 19:05:00,
2013-08-03 15:10:00,77.4,68.1,29.95,WNW,295,2.0,2.0,73,0.00,,,0.01,Wunderground v.1.15,2013-08-03 19:10:00,
2013-08-03 15:15:00,77.7,68.7,29.94,WNW,295,1.0,10.0,74,0.00,,,0.01,Wunderground v.1.15,2013-08-03 19:15:00,
2013-08-03 15:20:00,78.2,69.2,29.94,WNW,295,1.0,1.0,74,0.00,,,0.01,Wunderground v.1.15,2013-08-03 19:20:00,
2013-08-03 15:30:00,78.0,69.4,29.94,WNW,296,1.0,1.0,75,0.00,,,0.01,Wunderground v.1.15,2013-08-03 19:30:00,
2013-08-03 15:35:00,77.8,68.8,29.94,WNW,295,1.0,10.0,74,0.00,,,0.01,Wunderground v.1.15,2013-08-03 19:35:00,
2013-08-03 15:40:00,77.8,69.2,29.94,WNW,296,0.0,10.0,75,0.00,,,0.01,Wunderground v.1.15,2013-08-03 19:40:00,
2013-08-03 15:45:00,77.2,69.0,29.94,WNW,296,0.0,10.0,76,0.00,,,0.01,Wunderground v.1.15,2013-08-03 19:45:00,
2013-08-03 15:55:00,76.5,68.4,29.95,WNW,296,0.0,10.0,76,0.00,,,0.01,Wunderground v.1.15,2013-08-03 19:55:00,
2013-08-03 16:00:00,76.3,69.7,29.94,WNW,295,0.0,10.0,80,0.00,,,0.01,Wunderground v.1.15,2013-08-03 20:00:00,
2013-08-03 16:05:00,76.7,70.4,29.94,WNW,296,0.0,10.0,81,0.00,,,0.01,Wunderground v.1.15,2013-08-03 20:05:00,
2013-08-03 16:10:00,77.0,69.2,29.94,WNW,296,0.0,10.0,77,0.00,,,0.01,Wunderground v.1.15,2013-08-03 20:10:00,
2013-08-03 16:15:00,76.8,69.0,29.94,WNW,295,0.0,10.0,77,0.00,,,0.01,Wunderground v.1.15,2013-08-03 20:15:00,
2013-08-03 16:25:00,76.7,69.7,29.94,WNW,296,0.0,10.0,79,0.00,,,0.01,Wunderground v.1.15,2013-08-03 20:25:00,
2013-08-03 16:30:00,76.6,69.6,29.94,WNW,296,0.0,10.0,79,0.00,,,0.01,Wunderground v.1.15,2013-08-03 20:30:00,
2013-08-03 16:35:00,76.3,69.7,29.94,WNW,296,0.0,10.0,80,0.00,,,0.01,Wunderground v.1.15,2013-08-03 20:35:00,
2013-08-03 16:40:00,75.8,69.2,29.94,WNW,296,0.0,10.0,80,0.00,,,0.01,Wunderground v.1.15,2013-08-03 20:40:00,
2013-08-03 16:45:00,75.3,69.4,29.94,WNW,296,0.0,10.0,82,0.00,,,0.01,Wunderground v.1.15,2013-08-03 20:45:00,
2013-08-03 16:55:00,74.4,69.6,29.94,WNW,300,1.0,10.0,85,0.00,,,0.01,Wunderground v.1.15,2013-08-03 20:55:00,
2013-08-03 17:00:00,73.9,69.4,29.94,WNW,300,1.0,1.0,86,0.00,,,0.01,Wunderground v.1.15,2013-08-03 21:00:00,
2013-08-03 17:05:00,73.5,69.1,29.95,WNW,294,1.0,10.0,86,0.00,,,0.01,Wunderground v.1.15,2013-08-03 21:05:00,
2013-08-03 17:10:00,73.2,69.1,29.94,WNW,294,0.0,10.0,87,0.00,,,0.01,Wunderground v.1.15,2013-08-03 21:10:00,
2013-08-03 17:15:00,72.7,68.6,29.94,WNW,302,0.0,10.0,87,0.00,,,0.01,Wunderground v.1.15,2013-08-03 21:15:00,
2013-08-03 17:25:00,71.7,68.0,29.95,WNW,291,2.0,2.0,88,0.00,,,0.01,Wunderground v.1.15,2013-08-03 21:25:00,
2013-08-03 17:30:00,71.6,68.2,29.95,WNW,297,2.0,2.0,89,0.00,,,0.01,Wunderground v.1.15,2013-08-03 21:30:00,
2013-08-03 17:35:00,71.4,68.0,29.95,WNW,301,2.0,10.0,89,0.00,,,0.01,Wunderground v.1.15,2013-08-03 21:35:00,
2013-08-03 17:45:00,71.5,68.1,29.95,WNW,299,1.0,10.0,89,0.00,,,0.01,Wunderground v.1.15,2013-08-03 21:45:00,
2013-08-03 17:50:00,71.5,68.1,29.95,WNW,284,0.0,10.0,89,0.00,,,0.01,Wunderground v.1.15,2013-08-03 21:50:00,
2013-08-03 17:55:00,71.4,68.0,29.95,WNW,285,0.0,10.0,89,0.00,,,0.01,Wunderground v.1.15,2013-08-03 21:55:00,
2013-08-03 18:00:00,71.3,67.9,29.95,WNW,285,0.0,10.0,89,0.00,,,0.01,Wunderground v.1.15,2013-08-03 22:00:00,
2013-08-03 18:05:00,71.3,68.2,29.95,WNW,284,0.0,10.0,90,0.00,,,0.01,Wunderground v.1.15,2013-08-03 22:05:00,
2013-08-03 18:15:00,71.0,67.9,29.95,WNW,285,0.0,10.0,90,0.00,,,0.01,Wunderground v.1.15,2013-08-03 22:15:00,
2013-08-03 18:20:00,70.9,68.1,29.95,WNW,285,0.0,10.0,91,0.00,,,0.01,Wunderground v.1.15,2013-08-03 22:20:00,
2013-08-03 18:25:00,70.9,68.1,29.95,WNW,284,0.0,10.0,91,0.00,,,0.01,Wunderground v.1.15,2013-08-03 22:25:00,
2013-08-03 18:30:00,70.9,68.1,29.95,WNW,284,0.0,10.0,91,0.00,,,0.01,Wunderground v.1.15,2013-08-03 22:30:00,
2013-08-03 18:35:00,70.8,68.4,29.95,WNW,285,0.0,10.0,92,0.00,,,0.01,Wunderground v.1.15,2013-08-03 22:35:00,
2013-08-03 18:45:00,70.9,68.5,29.95,WNW,284,0.0,10.0,92,0.00,,,0.01,Wunderground v.1.15,2013-08-03 22:45:00,
2013-08-03 18:50:00,70.9,68.5,29.94,WNW,285,0.0,10.0,92,0.00,,,0.01,Wunderground v.1.15,2013-08-03 22:50:00,
2013-08-03 18:55:00,71.0,68.6,29.94,WNW,284,0.0,10.0,92,0.00,,,0.01,Wunderground v.1.15,2013-08-03 22:55:00,
2013-08-03 19:00:00,71.0,68.6,29.94,WNW,285,0.0,10.0,92,0.00,,,0.01,Wunderground v.1.15,2013-08-03 23:00:00,
2013-08-03 19:05:00,71.1,68.7,29.93,WNW,285,0.0,10.0,92,0.00,,,0.01,Wunderground v.1.15,2013-08-03 23:05:00,
2013-08-03 19:15:00,71.0,68.2,29.93,WNW,284,0.0,10.0,91,0.00,,,0.01,Wunderground v.1.15,2013-08-03 23:15:00,
2013-08-03 19:20:00,71.1,68.3,29.93,WNW,285,0.0,10.0,91,0.00,,,0.01,Wunderground v.1.15,2013-08-03 23:20:00,
2013-08-03 19:25:00,71.2,68.4,29.93,WNW,285,0.0,10.0,91,0.00,,,0.01,Wunderground v.1.15,2013-08-03 23:25:00,
2013-08-03 19:30:00,71.3,68.5,29.93,WNW,285,0.0,10.0,91,0.00,,,0.01,Wunderground v.1.15,2013-08-03 23:30:00,
2013-08-03 19:35:00,71.3,68.9,29.93,WNW,284,0.0,10.0,92,0.00,,,0.01,Wunderground v.1.15,2013-08-03 23:35:00,
2013-08-03 19:45:00,71.3,69.2,29.94,WNW,285,0.0,10.0,93,0.00,,,0.01,Wunderground v.1.15,2013-08-03 23:45:00,
2013-08-03 19:50:00,71.3,69.5,29.94,WNW,284,0.0,10.0,94,0.00,,,0.01,Wunderground v.1.15,2013-08-03 23:50:00,
2013-08-03 19:55:00,71.3,69.2,29.94,WNW,284,0.0,10.0,93,0.00,,,0.01,Wunderground v.1.15,2013-08-03 23:55:00,
2013-08-03 20:05:00,71.0,68.9,29.94,WNW,285,0.0,10.0,93,0.00,,,0.01,Wunderground v.1.15,2013-08-04 00:05:00,
2013-08-03 20:10:00,70.8,68.7,29.94,WNW,285,0.0,10.0,93,0.00,,,0.01,Wunderground v.1.15,2013-08-04 00:10:00,
2013-08-03 20:15:00,70.6,68.5,29.94,WNW,284,0.0,10.0,93,0.00,,,0.01,Wunderground v.1.15,2013-08-04 00:15:00,
2013-08-03 20:20:00,70.5,68.4,29.95,WNW,284,0.0,10.0,93,0.00,,,0.01,Wunderground v.1.15,2013-08-04 00:20:00,
2013-08-03 20:25:00,70.5,68.7,29.95,WNW,285,0.0,10.0,94,0.00,,,0.01,Wunderground v.1.15,2013-08-04 00:25:00,
2013-08-03 20:35:00,70.3,68.5,29.95,WNW,287,1.0,10.0,94,0.00,,,0.01,Wunderground v.1.15,2013-08-04 00:35:00,
2013-08-03 20:40:00,70.3,68.5,29.95,WNW,288,1.0,10.0,94,0.00,,,0.01,Wunderground v.1.15,2013-08-04 00:40:00,
2013-08-03 20:45:00,70.3,68.5,29.95,WNW,292,1.0,10.0,94,0.00,,,0.01,Wunderground v.1.15,2013-08-04 00:45:00,
2013-08-03 20:50:00,70.2,68.4,29.95,WNW,293,2.0,2.0,94,0.00,,,0.01,Wunderground v.1.15,2013-08-04 00:50:00,
2013-08-03 20:55:00,70.1,68.0,29.95,WNW,296,2.0,10.0,93,0.00,,,0.01,Wunderground v.1.15,2013-08-04 00:55:00,
2013-08-03 21:05:00,69.9,67.8,29.96,WNW,298,1.0,10.0,93,0.00,,,0.01,Wunderground v.1.15,2013-08-04 01:05:00,
2013-08-03 21:10:00,69.9,67.8,29.96,WNW,298,1.0,1.0,93,0.00,,,0.02,Wunderground v.1.15,2013-08-04 01:10:00,
2013-08-03 21:15:00,69.4,67.6,29.96,WNW,296,1.0,10.0,94,0.15,,,0.04,Wunderground v.1.15,2013-08-04 01:15:00,
2013-08-03 21:20:00,68.9,67.4,29.96,WNW,296,1.0,10.0,95,0.13,,,0.05,Wunderground v.1.15,2013-08-04 01:20:00,
2013-08-03 21:25:00,68.4,67.2,29.96,WNW,296,0.0,10.0,96,0.10,,,0.05,Wunderground v.1.15,2013-08-04 01:25:00,
2013-08-03 21:35:00,68.0,67.4,29.96,WNW,296,0.0,10.0,98,0.09,,,0.07,Wunderground v.1.15,2013-08-04 01:35:00,
2013-08-03 21:40:00,67.9,67.3,29.96,WNW,296,0.0,10.0,98,0.09,,,0.07,Wunderground v.1.15,2013-08-04 01:40:00,
2013-08-03 21:45:00,67.9,67.3,29.96,WNW,296,0.0,10.0,98,0.06,,,0.07,Wunderground v.1.15,2013-08-04 01:45:00,
2013-08-03 21:50:00,67.8,67.5,29.95,WNW,296,0.0,10.0,99,0.04,,,0.07,Wunderground v.1.15,2013-08-04 01:50:00,
2013-08-03 21:55:00,67.7,67.4,29.95,WNW,296,0.0,10.0,99,0.00,,,0.07,Wunderground v.1.15,2013-08-04 01:55:00,
2013-08-03 22:05:00,67.7,67.4,29.95,WNW,296,0.0,10.0,99,0.00,,,0.07,Wunderground v.1.15,2013-08-04 02:05:00,
2013-08-03 22:10:00,67.7,67.4,29.95,WNW,296,0.0,10.0,99,0.00,,,0.07,Wunderground v.1.15,2013-08-04 02:10:00,
2013-08-03 22:15:00,67.7,67.4,29.95,WNW,296,0.0,10.0,99,0.00,,,0.07,Wunderground v.1.15,2013-08-04 02:15:00,
2013-08-03 22:20:00,67.6,67.3,29.95,WNW,296,0.0,10.0,99,0.00,,,0.07,Wunderground v.1.15,2013-08-04 02:20:00,
2013-08-03 22:30:00,67.7,67.7,29.95,WNW,296,0.0,10.0,100,0.00,,,0.07,Wunderground v.1.15,2013-08-04 02:30:00,
2013-08-03 22:35:00,67.6,67.6,29.95,WNW,296,0.0,10.0,100,0.00,,,0.07,Wunderground v.1.15,2013-08-04 02:35:00,
2013-08-03 22:40:00,67.6,67.6,29.95,WNW,296,0.0,10.0,100,0.00,,,0.07,Wunderground v.1.15,2013-08-04 02:40:00,
2013-08-03 22:45:00,67.6,67.6,29.95,WNW,296,0.0,10.0,100,0.00,,,0.07,Wunderground v.1.15,2013-08-04 02:45:00,
2013-08-03 22:55:00,67.6,67.6,29.95,WNW,296,0.0,10.0,100,0.00,,,0.07,Wunderground v.1.15,2013-08-04 02:55:00,
2013-08-03 23:00:00,67.6,67.6,29.95,WNW,296,0.0,10.0,100,0.00,,,0.07,Wunderground v.1.15,2013-08-04 03:00:00,
2013-08-03 23:05:00,67.6,67.6,29.95,WNW,296,0.0,10.0,100,0.00,,,0.07,Wunderground v.1.15,2013-08-04 03:05:00,
2013-08-03 23:10:00,67.7,67.7,29.95,WNW,296,0.0,10.0,100,0.00,,,0.07,Wunderground v.1.15,2013-08-04 03:10:00,
2013-08-03 23:15:00,67.7,67.7,29.95,WNW,296,0.0,10.0,100,0.00,,,0.07,Wunderground v.1.15,2013-08-04 03:15:00,
2013-08-03 23:25:00,67.7,67.7,29.95,WNW,296,0.0,10.0,100,0.00,,,0.07,Wunderground v.1.15,2013-08-04 03:25:00,
2013-08-03 23:30:00,67.7,67.7,29.95,WNW,296,0.0,10.0,100,0.00,,,0.07,Wunderground v.1.15,2013-08-04 03:30:00,
2013-08-03 23:35:00,67.6,67.6,29.95,WNW,296,0.0,10.0,100,0.00,,,0.07,Wunderground v.1.15,2013-08-04 03:35:00,
2013-08-03 23:40:00,67.6,67.6,29.95,WNW,296,0.0,10.0,100,0.00,,,0.07,Wunderground v.1.15,2013-08-04 03:40:00,
2013-08-03 23:45:00,67.5,67.5,29.95,WNW,296,0.0,10.0,100,0.00,,,0.07,Wunderground v.1.15,2013-08-04 03:45:00,
2013-08-03 23:55:00,67.4,67.4,29.95,WNW,296,0.0,10.0,100,0.00,,,0.07,Wunderground v.1.15,2013-08-04 03:55:00,